Location: Bakersfield
(35.3730°N, 119.0180°W)
Time: 14:11:08
(UTC-08:00)

Daily predictions for brighter satellites

Satellite Brightness Start Highest point End
(mag) Time Altitude Azimuth Time Altitude Azimuth Time Altitude Azimuth
Cosmos 1328 4.5 17:31:12 10° SSE 17:34:47 34° E 17:38:22 10° NNE
Aureole 2 Rocket 4.4 17:33:26 10° SE 17:35:24 14° E 17:37:28 10° ENE
CENTAUR R/B 3.1 17:29:40 10° SW 17:35:31 57° NW 17:42:08 10° NNE
Cosmos 44 Rocket 3.5 17:31:12 10° SSW 17:36:18 67° ESE 17:41:21 10° NE
Meteor 1-28 Rocket 4.4 17:33:16 10° NE 17:36:18 24° E 17:39:20 10° SSE
Lacrosse 5 4.2 17:36:11 10° NW 17:37:59 12° NNW 17:39:48 10° N
YAOGAN 1 2.6 17:35:00 10° SSE 17:39:18 89° E 17:43:40 10° NNW
COSMO-SKYMED 1 2.9 17:37:00 10° NNE 17:41:12 47° E 17:45:22 10° S
CZ-2C R/B 3.0 17:36:43 10° S 17:41:44 66° W 17:46:37 10° NNW
Cosmos 1844 Rocket 2.7 17:36:19 10° NNW 17:41:56 62° ENE 17:47:29 10° SSE
Meteor 2-2 Rocket 4.3 17:36:46 10° N 17:42:21 61° E 17:47:54 10° SSE
Cosmos 2228 Rocket 3.0 17:42:45 10° N 17:47:11 82° E 17:51:37 10° S
Cosmos 836 Rocket 4.5 17:42:21 10° S 17:47:32 71° ESE 17:52:46 10° NNE
SJ-6B 4.4 17:45:36 10° ESE 17:48:08 16° ENE 17:50:43 10° NNE
CZ-4 R/B 4.5 17:46:18 10° SSE 17:50:27 88° WSW 17:54:38 10° NNW
Cosmos 389 Rocket 4.0 17:49:27 10° NNW 17:52:50 41° W 17:56:10 10° SSW
Cosmos 2360 Rocket 4.5 17:48:58 10° WSW 17:53:06 21° WNW 17:57:16 10° N
Cosmos 1980 3.8 17:48:26 10° S 17:54:00 62° ESE 17:59:37 10° NNE
Cosmos 2058 3.5 17:51:33 10° SSE 17:55:15 33° E 17:58:58 10° NNE
H-2A ROCKET BODY 4.4 17:12:06 10° WSW 17:55:25 56° S 18:02:23 10° E
Elektron 3 4.0 17:51:55 10° NNW 17:56:31 77° NE 17:59:27 10° SE
Cosmos 2279 Rocket 4.4 17:52:45 10° N 17:58:29 38° ENE 18:04:12 10° SE
Cosmos 1703 4.5 17:59:29 10° SE 18:02:29 22° E 18:04:47 14° NE
Cosmos 2333 Rocket 2.3 18:00:58 10° SSW 18:06:37 85° WNW 18:12:18 10° NNE
Atlas Centaur 2 3.7 18:06:49 10° WSW 18:11:00 24° SSW 18:14:32 10° SSE
Cosmos 372 Rocket 4.2 18:11:45 10° N 18:16:36 42° ENE 18:21:24 10° SE
Cosmos 1340 Rocket 3.0 18:13:31 10° S 18:17:19 47° E 18:21:06 10° NNE
Meteor 2-10 4.1 18:12:37 10° N 18:17:33 49° ENE 18:22:36 10° SSE
Abrixas 2.3 18:14:41 10° SW 18:17:35 81° SE 18:18:50 31° ENE
METEOR-M 4.3 18:12:41 10° SE 18:17:47 47° ENE 18:22:55 10° N
Cosmos 1356 Rocket 4.3 18:16:04 10° SSE 18:19:21 25° E 18:19:50 24° E
Cosmos 2219 Rocket 3.1 18:14:18 10° SW 18:19:45 50° WNW 18:25:14 10° N
Cosmos 2151 3.1 18:17:16 10° S 18:21:29 77° W 18:25:41 10° N
Meteor 1-27 4.2 18:20:06 10° N 18:25:52 64° E 18:31:39 10° SSE
Cosmos 540 Rocket 3.7 18:20:43 10° SSW 18:25:52 74° WNW 18:31:04 10° NNE
SL-14 R/B 3.6 18:22:01 10° SSW 18:25:53 66° W 18:29:49 10° N
Cosmos 1626 2.8 18:23:43 10° SSE 18:27:03 32° E 18:27:22 31° E
Cosmos 2278 Rocket 2.1 18:22:59 10° NNW 18:28:39 66° ENE 18:34:16 10° SSE
Cosmos 1805 Rocket 3.6 18:25:54 10° S 18:30:14 54° E 18:34:22 11° NNE
Cosmos 1484 Rocket 4.4 18:27:08 10° SSW 18:30:46 38° W 18:34:28 10° NNW
OAO 1 Rocket 4.4 18:28:32 10° W 18:33:51 88° S 18:36:35 30° E
SOZ 4.2 18:31:55 10° SW 18:34:06 71° NW 18:34:19 62° N
Cosmos 1151 Rocket 3.6 18:31:21 10° NNW 18:35:33 58° W 18:39:45 10° S
USA 215 3.2 18:33:01 10° ESE 18:39:29 67° NE 18:46:00 10° NW
Cosmos 1844 4.5 18:34:05 10° NNW 18:39:42 56° WSW 18:45:20 10° S
Aureole 1 Rocket 4.4 18:38:42 10° SSE 18:42:13 29° ESE 18:42:13 29° ESE
NOAA 12 4.1 18:39:23 10° SSE 18:44:37 86° WSW 18:49:54 10° NNW
Cosmos 1300 4.0 18:42:40 10° NNW 18:46:17 40° W 18:49:53 10° SSW
ALOS 2.5 18:41:59 10° SE 18:46:24 44° ENE 18:50:49 10° N
Cosmos 1125 Rocket 3.9 18:41:55 10° NNW 18:47:04 64° WSW 18:52:10 10° S
Cosmos 1726 3.7 18:44:06 10° NNW 18:47:36 37° W 18:51:05 10° SSW
Timation 1 Rocket 4.4 18:44:23 10° NNW 18:50:15 51° ENE 18:53:51 23° SE
Cosmos 2237 Rocket 3.2 18:45:14 10° SW 18:50:35 46° WNW 18:56:01 10° N
Milstar 3 3.8 18:45:34 10° W 18:51:39 38° SSW 18:57:25 15° SE
Hubble Space Telescope 3.4 18:49:28 10° SW 18:51:51 15° SSW 18:54:14 10° SSE
OTV 4 1.1 18:49:36 10° WNW 18:51:57 52° WNW 18:51:57 52° WNW
FREGAT/IRIS 2.8 18:49:55 10° S 18:57:40 - NNW 18:52:45 68° SW
Spot 2 Rocket 3.6 18:48:39 10° SE 18:53:30 49° ENE 18:58:21 10° N
Sich 1 3.0 18:49:38 10° S 18:54:02 65° E 18:55:02 49° NE
SL-16 R/B 2.1 18:49:33 10° SSW 18:55:11 79° ESE 18:58:16 28° NNE
Lacrosse 5 rocket 2.6 18:53:09 10° NNW 18:55:10 25° N 18:55:10 25° N
Cosmos 1633 Rocket 3.0 18:52:55 10° S 18:57:15 61° E 18:57:15 61° E
Cosmos 1538 Rocket 3.9 18:55:55 10° S 19:01:09 76° ESE 19:03:08 39° NNE
Transit 2A Rocket 4.3 18:58:56 10° NNW 19:03:15 81° ENE 19:03:26 78° ESE
Resurs 01 Rocket 3.1 19:09:28 26° N 19:09:28 26° N 19:11:26 10° N
Cosmos 2297 3.6 19:02:08 10° NNW 19:07:48 65° ENE 19:09:08 50° ESE
Intelsat 5-1 Rocket 4.1 19:11:31 10° SW 19:14:14 19° S 19:14:33 19° SSE
SL-19 R/B 4.4 19:08:37 10° SSE 19:14:43 82° WSW 19:20:27 10° NNW
USA 229 DEB 3.6 19:11:58 10° SSW 19:18:40 60° ESE 19:19:18 57° E
USA 229 3.6 19:12:05 10° SSW 19:18:46 59° ESE 19:19:21 57° E
Cosmos 1707 Rocket 4.0 19:17:31 10° NNW 19:21:47 59° W 19:26:01 10° S
Cosmos 1461 3.7 19:19:44 10° SW 19:23:33 49° WNW 19:23:33 49° WNW
Iridium 4 Rocket 4.1 19:21:42 10° S 19:24:49 40° S 19:24:49 40° S
FENGYUN 3A 4.5 19:40:26 10° S 19:45:34 48° W 19:50:45 10° NNW
